www.pogodaiklimat.ru

Погода и климат >> Архив погоды >> Филиппины >> Иба


ПОГОДА в Ибе

  • Прогноз погоды в Ибе
  • Монитор погоды в Ибе

АРХИВ ПОГОДЫ в Ибе

Время (UTC), дата Ветер
(напр.,м/с)
 
Видим.   Явления Облачность Т
(С)
Тd
(С)
f
(%)
Тe
(С)
Тes
(С)
Комфортность P
(гПа)
Po
(гПа)
Тmin
(С)
Tmax
(С)
R
(мм)
R24
(мм)
S
(см)
21 16.08 В 1 18 км в посл. час дождь {туман} 9/4 450 м
[Cb cap Ac As Cs]
+26.2 +25.6 97 +39 +39 очень
душно
1011.3 1010.7 1
00 17.08 ЮВ 1 18 км мгла {дождь, туман} 9/6 450 м
[Cb cap Ac cuf Cs]
+28.2 +26.8 92 +44 +46 опасность
перегрева
1012.1 1011.5 +24.5 24
03 17.08 ЮЗ 4 18 км мгла {туман} 6/3 480 м
[Cu med, cong Ac cuf Ci fib]
+30.8 +27.5 83 +50 +57 опасность
перегрева
1012.5 1011.9
06 17.08 ЮЗ 3 20 км мгла {туман} 6/3 480 м
[Cu med, cong Ac cuf Ci fib]
+31.3 +27.8 82 +51 +59 опасность
перегрева
1010.1 1009.5
09 17.08 ЮЗ 2 20 км мгла {дождь, туман} 8/3 480 м
[Cu med, cong Ac As]
+30.0 +27.7 88 +49 +50 опасность
перегрева
1009.5 1008.9 0.0
12 17.08 СВ 1 18 км в посл. час дождь {туман} 9/3 480 м
[Cu med, cong Ac As]
+27.4 +26.2 93 +41 +41 опасность
перегрева
1012.1 1011.5 +31.3 13
15 17.08 СВ 1 18 км мгла {гроза} 6/1 480 м
[Cu med, cong Ac cuf Ci fib]
+26.1 +25.4 96 +38 +38 очень
душно
1012.4 1011.8 20
18 17.08 В 1 18 км мгла {гроза} 8/1 480 м
[Cu med, cong Ac As]
+26.0 +25.1 95 +37 +37 очень
душно
1011.2 1010.6 20
21 17.08 СВ 1 16 км гроза без осадков {туман} 9/3 450 м
[Cb cap Ac As]
+26.0 +25.2 95 +37 +37 очень
душно
1010.9 1010.3
00 18.08 СВ 2 20 км мгла {дождь, туман} 8/3 480 м
[Cu med, cong Ac As]
+26.9 +26.1 95 +40 +42 очень
душно
1011.5 1010.9 +25.0 35
03 18.08 ЮВ 1 20 км в посл. час дождь {туман} 9/4 480 м
[Cu med, cong Ac As]
+29.4 +26.6 85 +45 +52 опасность
перегрева
1011.5 1010.9 0.0
06 18.08 ЮЗ 1 18 км в посл. час дождь {туман} 9/4 480 м
[Cu med, cong Ac As]
+29.4 +27.0 87 +46 +51 опасность
перегрева
1009.9 1009.3 1
09 18.08 З 2 18 км мгла {туман} 8/3 480 м
[Cu med, cong Ac As]
+30.0 +27.2 85 +48 +48 опасность
перегрева
1008.9 1008.3
12 18.08 СВ 1
{11}
16 км мгла {дождь, туман} 9/3 480 м
[Cu med, cong Ac As]
+27.2 +25.9 93 +41 +41 опасность
перегрева
1010.7 1010.1 +30.5 0.0
15 18.08 СВ 1 18 км мгла {туман} 5/3 450 м
[Cb cap Ac cuf]
+26.7 +25.2 91 +38 +38 очень
душно
1011.4 1010.8
18 18.08 СВ 1 18 км в посл. час дождь {ливн. осадки, туман} 5/1 480 м
[Cu med, cong Ac cuf]
+26.0 +25.2 95 +37 +37 очень
душно
1009.5 1008.9 2
21 18.08 В 1 18 км мгла {туман} 9/1 480 м
[Cu med, cong Ac As]
+25.7 +24.8 95 +36 +36 очень
душно
1008.8 1008.2
00 19.08 СВ 1 18 км осадки на расстоянии {туман} 8/4 480 м
[Sc Ac As]
+26.4 +25.6 95 +39 +41 очень
душно
1008.9 1008.3 +24.8 3
03 19.08 З 2 20 км осадки на расстоянии {туман} 8/4 480 м
[Sc Ac As]
+30.1 +26.9 83 +47 +54 опасность
перегрева
1009.1 1008.5
06 19.08 ЮЗ 3 20 км мгла {туман} 8/3 480 м
[Cu med, cong Ac cuf]
+31.2 +28.9 88 +54 +59 опасность
перегрева
1007.9 1007.3
09 19.08 З 2 18 км мгла {туман} 9/4 480 м
[Cu med, cong Ac cuf Cs]
+29.6 +27.8 90 +48 +49 опасность
перегрева
1007.4 1006.8
12 19.08 З 1 18 км мгла {туман} 5/1 480 м
[Cu med, cong Ac cuf Ci fib]
+28.8 +27.4 92 +46 +46 опасность
перегрева
1009.4 1008.8 +31.4
15 19.08 ЮВ 1 18 км мгла {туман} 9/3 480 м
[Cu med, cong Ac As]
+27.3 +26.1 93 +41 +41 опасность
перегрева
1009.8 1009.2
18 19.08 СВ 1 18 км мгла {туман} 9/3 480 м
[Cu med, cong Ac trans]
+26.6 +25.6 94 +39 +39 очень
душно
1007.4 1006.8
21 19.08 В 1 18 км мгла {туман} 5/3 480 м
[Cu med, cong Ac cuf]
+25.8 +24.7 94 +37 +37 очень
душно
1007.1 1006.5
00 20.08 В 1 20 км мгла {туман} 5/3 480 м
[Cu med, cong Ac cuf Ci fib]
+28.1 +25.9 88 +42 +46 опасность
перегрева
1008.7 1008.1 +24.9
03 20.08 В 1 18 км мгла {туман} 9/3 480 м
[Cu med, cong Ac As]
+29.2 +26.1 83 +44 +51 опасность
перегрева
1008.9 1008.3
06 20.08 ЮЗ 3 18 км мгла {туман} 9/5 450 м
[Cb cap Ac cuf Cs]
+30.8 +28.3 87 +52 +56 опасность
перегрева
1007.7 1007.1
09 20.08 Ю 2 18 км мгла {туман} 9/4 480 м
[Cu med, cong Ac As]
+29.9 +28.0 90 +50 +50 опасность
перегрева
1007.6 1007.0
12 20.08 Ю 1 16 км мгла {туман} 9/1 480 м
[Cu med, cong Ac cuf Cs]
+28.9 +27.4 92 +47 +47 опасность
перегрева
1009.1 1008.5 +30.8
15 20.08 В 1 15 км слаб. ливневой дождь {туман} 10/3 480 м
[Cu med, cong Ac As Cs]
+26.6 +25.6 94 +39 +39 очень
душно
1009.5 1008.9 2
18 20.08 СВ 2 16 км мгла {туман} 10/3 480 м
[Cu med, cong Ac As Cs]
+26.0 +25.1 95 +37 +37 очень
душно
1007.9 1007.3 3
21 20.08 СВ 2 18 км в посл. час ливневой дождь {туман} 9/1 480 м
[Cu med, cong Ac cuf Cs]
+26.2 +25.4 95 +38 +38 очень
душно
1007.7 1007.1 2
00 21.08 СВ 2 20 км мгла {туман} 9/3 480 м
[Cu med, cong Ac cuf Cs]
+26.7 +24.6 88 +38 +40 очень
душно
1009.9 1009.3 +24.5 5
03 21.08 ЮЗ 2 20 км мгла {туман} 9/3 480 м
[Cu med, cong Ac cuf Cc]
+30.4 +26.0 77 +45 +54 опасность
перегрева
1008.9 1008.3
06 21.08 Ю 4 20 км мгла {туман} 9/3 480 м
[Cu med, cong Ac cuf Cs]
+29.8 +28.3 92 +50 +55 опасность
перегрева
1007.6 1007.0
09 21.08 СВ 2
{11}
20 км мгла {туман} 9/5 450 м
[Cb cap Ac As]
+27.4 +26.4 94 +42 +42 опасность
перегрева
1008.3 1007.7 0.2
12 21.08 ЮВ 1 15 км слаб. дождь {гроза} 10/4 480 м
[Sc Ac As]
+25.0 +24.5 97 +35 +35 очень
душно
1010.6 1010.0 +30.5 48
15 21.08 СВ 1 15 км слаб. дождь 10/5 480 м
[Sc Ac As]
+24.5 +23.8 96 +33 +33 очень
душно
1012.3 1011.7 32
18 21.08 штиль 0 16 км в посл. час дождь {туман} 10/3 480 м
[Cu med, cong Ac As]
+24.6 +23.5 94 +33 +33 очень
душно
1010.0 1010.0 34
21 21.08 штиль 0 18 км мгла {туман} 10/3 480 м
[Cu med, cong Ac As Cs]
+24.6 +23.9 96 +34 +34 очень
душно
1009.2 1008.6
00 22.08 В 1 20 км мгла {туман} 9/1 480 м
[Cu med, cong Ac und Cs]
+25.6 +24.0 91 +35 +39 очень
душно
1009.0 1008.4 +23.4 82
03 22.08 Ю 1 20 км мгла {туман} 9/3 480 м
[Cu med, cong Ac As Cs]
+28.9 +25.4 81 +42 +52 опасность
перегрева
1008.9 1008.3
06 22.08 Ю 4 20 км мгла {туман} 9/4 450 м
[Cb cap Ac As Cs]
+30.1 +26.9 83 +47 +51 опасность
перегрева
1007.4 1006.8
09 22.08 С 3 20 км в посл. час ливневой дождь {туман} 10/6 450 м
[Cb cap Ac As Cs]
+26.0 +25.2 95 +37 +38 очень
душно
1007.4 1006.8
12 22.08 С 3 12 км слаб. дождь 10/5 480 м
[Sc As op]
+24.7 +24.2 97 +34 +34 очень
душно
1009.9 1009.3 +30.4 20
15 22.08 СВ 2 14 км слаб. дождь 10/4 480 м
[Sc Ac As]
+25.4 +24.9 97 +36 +36 очень
душно
1010.2 1009.6 3
18 22.08 СВ 1 10 км дождь 10/5 480 м
[Sc As op]
+25.0 +23.9 94 +34 +34 очень
душно
1008.7 1008.1 25
21 22.08 С 2 12 км слаб. дождь 10/4 480 м
[Sc Ac As]
+25.1 +22.6 86 +33 +33 очень
душно
1006.6 1006.0 2
00 23.08 С 1 20 км мгла {дождь, туман} 10/3 480 м
[Cu med, cong Ac As]
+26.0 +24.7 93 +37 +38 очень
душно
1007.7 1007.1 +23.2 48
03 23.08 СВ 1 16 км осадки на расстоянии {туман} 10/3 480 м
[Cu med, cong Ac As]
+27.0 +26.0 94 +40 +45 очень
душно
1008.6 1008.0 4
06 23.08 ЮЗ 6
{12}
15 км дождь {туман} 10/4 480 м
[Sc Ac As]
+25.7 +25.0 96 +37 +38 очень
душно
1006.9 1006.3 12
09 23.08 Ю 9
{15}
10 км сильн. дождь 10/4 480 м
[Sc Ac As]
+25.2 +24.6 96 +35 +35 очень
душно
1006.7 1006.1 22
12 23.08 Ю 4
{9}
10 км дождь 10/4 480 м
[Cu med, cong Ac As]
+26.5 +25.6 95 +39 +39 очень
душно
1007.7 1007.1 +27.9 43
15 23.08 ЮЗ 8
{12}
15 км слаб. дождь 10/3 480 м
[Cu med, cong Ac As]
+26.4 +25.5 95 +39 +39 очень
душно
1008.0 1007.4 18
18 23.08 ЮЗ 2 15 км мгла {дождь, туман} 10/3 480 м
[Cu med, cong Ac As]
+27.1 +25.4 90 +39 +39 очень
душно
1005.9 1005.3 19

 

Местоположение метеостанции Иба (Филиппины): широта 15.33 долгота 119.96 высота над уровнем моря 5 м.

В архиве по умолчанию представлена погода в Ибе за последнюю неделю. Архивные данные за месяц целиком и за предыдущие месяцы, начиная с января 2011 года, Вы можете получить, выбрав интересующий диапазон дат из раскрывающегося списка и нажав кнопку "Ввод!".


*Определитесь, кто Вы:
робот инопланетянин человек

Внимание! Время в таблицах - всемирное. Для получения местного времени необходимо прибавить поправку, которая равна 8 ч.

Смотрите также архив погоды в соседних городах и на ближайших метеорологических станциях:

Погода на Базе ВВС Clark (Филиппины) (67 км)
Погода в Куби Пойнт (Филиппины) (67 км)
Погода в Дагупане (Филиппины) (89 км)
Погода в Кабанатуане (Филиппины) (109 км)
Погода в Научном саду (Филиппины) (137 км)
Погода в Сангли Пойнт (Филиппины) (138 км)
Погода в Маниле (Филиппины) (138 км)
Погода в Багио (Филиппины) (139 км)
Погода в Аэропорту Ninoy Aquino (Филиппины) (144 км)
Погода в Танае (Филиппины) (176 км)

Пояснения к столбцам:

Ветер - указаны скорость ветра в м/с - средняя за 10 мин, порывы в срок и между сроками (в фигурных скобках) и направление, откуда дует ветер: С - северный, СВ - северо-восточный, В - восточный, ЮВ - юго-восточный, Ю - южный, ЮЗ - юго-западный, З - западный, СЗ - северо-западный.
Видимость - горизонтальная дальность видимости в метрах или километрах. При видимости от 1 до 10 км при отсутствии осадков обычно наблюдается дымка, при ухудшении видимости до 1 км и менее - туман. В сухую погоду видимость может ухудшаться дымом, пылью или мглою.
Явления - указаны атмосферные явления, наблюдавшиеся в срок или в последний час перед сроком; фигурными скобками обозначены явления, наблюдавшиеся между сроками (за 1-3 часа до срока); квадратными скобками обозначены град или гололедные отложения с указанием их диаметра в мм.
Облачность - указаны через наклонную черту общая и нижняя облачность в баллах и высота нижней границы облаков в метрах; квадратными скобками обозначены формы облаков: Ci - перистые, Cs - перисто-слоистые, Cc - перисто-кучевые, Ac - высококучевые, As - высокослоистые, Sc - слоисто-кучевые, Ns - слоисто-дождевые, Cu - кучевые, Cb - кучево-дождевые. Подробнее классификацию облаков см. в Атласе облаков (PDF).
T - Температура воздуха - температура, измеренная на высоте 2 м над землей.
Td - Температура точки росы - температура, при понижении до которой содержащийся в воздухе водяной пар достигнет насыщения.
f - Относительная влажность воздуха - влажноcть воздуха, измеренная на высоте 2 м над землей.
Te - Эффективная температура - температура, которую ощущает одетый по сезону человек в тени. Характеристика душности погоды. При расчете учитывается влияние влажности воздуха и скорости ветра на теплоощущения человека.
Tes - Эффективная температура на солнце - температура, которую ощущает человек, с поправкой на солнечный нагрев. Характеристика знойности погоды. Зависит от высоты солнца над горизонтом, облачности и скорости ветра. Ночью, в пасмурную погоду, а также при ветре 12 м/с и более поправка равна нулю.
P - Атмосферное давление - приведенное к уровню моря атмосферное давление.
Po - Атмосферное давление - измеренное на уровне метеостанции атмосферное давление.
Tmin - Минимальная температура - минимум температуры воздуха на высоте 2 м над землей.
Tmax - Максимальная температура - максимум температуры воздуха на высоте 2 м над землей.
R - Количество осадков - Количество выпавших осадков за период времени, мм. При наведении курсора мыши на число - период времени, за который выпало указанное количество осадков.
R24 - Количество осадков - Количество выпавших осадков за 24 часа, мм.
S - Снежный покров - Высота снежного покрова, см. При наведении курсора мыши на число - состояние снежного покрова и степень покрытия местности в баллах.